www.pogodaiklimat.ru
ПОГОДА в Лаукансаари
Время
(UTC), дата
22 8.12
23 8.12
00 9.12
01 9.12
02 9.12
03 9.12
04 9.12
05 9.12
06 9.12
07 9.12
08 9.12
09 9.12
10 9.12
11 9.12
12 9.12
13 9.12
14 9.12
15 9.12
16 9.12
17 9.12
18 9.12
19 9.12
20 9.12
21 9.12
22 9.12
23 9.12
00 10.12
01 10.12
02 10.12
03 10.12
04 10.12
05 10.12
06 10.12
07 10.12
08 10.12
09 10.12
10 10.12
11 10.12
12 10.12
13 10.12
14 10.12
15 10.12
16 10.12
17 10.12
18 10.12
19 10.12
20 10.12
21 10.12
22 10.12
23 10.12
00 11.12
01 11.12
02 11.12
03 11.12
04 11.12
05 11.12
06 11.12
07 11.12
08 11.12
09 11.12
10 11.12
11 11.12
12 11.12
13 11.12
14 11.12
15 11.12
16 11.12
17 11.12
18 11.12
19 11.12
20 11.12
21 11.12
22 11.12
23 11.12
00 12.12
01 12.12
02 12.12
03 12.12
04 12.12
05 12.12
06 12.12
07 12.12
08 12.12
09 12.12
10 12.12
11 12.12
12 12.12
13 12.12
14 12.12
15 12.12
16 12.12
17 12.12
18 12.12
19 12.12
20 12.12
21 12.12
22 12.12
23 12.12
00 13.12
01 13.12
02 13.12
03 13.12
04 13.12
05 13.12
06 13.12
07 13.12
08 13.12
09 13.12
10 13.12
11 13.12
12 13.12
13 13.12
14 13.12
15 13.12
16 13.12
17 13.12
18 13.12
19 13.12
20 13.12
21 13.12
22 13.12
23 13.12
00 14.12
01 14.12
02 14.12
03 14.12
04 14.12
05 14.12
06 14.12
07 14.12
08 14.12
09 14.12
10 14.12
11 14.12
12 14.12
13 14.12
14 14.12
15 14.12
16 14.12
17 14.12
18 14.12
19 14.12
20 14.12
21 14.12
22 14.12
23 14.12
00 15.12
01 15.12
02 15.12
03 15.12
04 15.12
05 15.12
06 15.12
07 15.12
08 15.12
09 15.12
10 15.12
11 15.12
12 15.12
13 15.12
14 15.12
15 15.12
16 15.12
17 15.12
18 15.12
19 15.12
20 15.12
Ветер
(напр.,м/с)
Видим. Явления Облачность Т
(С)
Тd
(С)
f
(%)
Тe
(С)
Тes
(С)
Комфортность P
(гПа)
Po
(гПа)
Тmin
(С)
Tmax
(С)
R
(мм)
R24
(мм)
S
(см)
5000 м слаб. снег 10/0 100 м
[]
+0.4 +0.2 99 979.6 970.0 0.1
7000 м слаб. снег 10/0 200 м
[]
+0.6 -0.1 95 977.7 968.0 0.1
8000 м переохл. дождь (гололёд) {снег} 10/0 200 м
[]
+0.6 +0.3 98 976.0 966.4 0.4
30 км слаб. ливневой дождь 10/0 200 м
[]
+1.1 +0.7 97 974.6 965.0 0.1
22 км в посл. час дождь 10/0 200 м
[]
+1.5 +1.2 98 974.0 964.5 0.4
15 км ливневой дождь 10/0 100 м
[]
+2.4 +2.4 100 973.9 964.4 0.3
45 км в посл. час дождь 9/0 300 м
[]
+4.6 +3.9 95 973.8 964.3 0.3
35 км 9/9 300 м
[]
+4.5 +3.5 93 973.9 964.5
20 км ливневой дождь 9/0 300 м
[]
+4.6 +3.1 90 974.2 964.7 -0.6 +4.9 <0.5
18 км слаб. ливневой дождь 9/0 600 м
[]
+4.6 +2.9 89 974.8 965.3
35 км в посл. час дождь 10/0 600 м
[]
+4.8 +2.6 86 975.4 966.0
40 км в посл. час снег {ливн. осадки, туман} 9/0 600 м
[]
+5.0 +2.2 82 975.9 966.4
40 км 9/0 600 м
[]
+5.2 +1.8 79 976.1 966.7
35 км осадки 10/0 600 м
[]
+5.3 +1.6 77 976.8 967.3
40 км ливневой дождь {туман} 10/0 600 м
[]
+5.0 +1.9 80 977.6 968.1
40 км слаб. ливневой дождь 10/0 300 м
[]
+4.5 +2.3 86 978.8 969.3 0.1
4700 м дождь 10/0 200 м
[]
+3.7 +3.0 95 980.1 970.6 0.7
27 км слаб. дождь 10/0 300 м
[]
+3.1 +2.3 94 981.4 971.9 2
17 км слаб. ливневой дождь 10/0 200 м
[]
+3.0 +2.5 97 982.8 973.2
45 км ливневой дождь 10/0 600 м
[]
+2.8 +1.9 94 984.1 974.5
50 км {ливн. осадки, дождь} 9/9 300 м
[]
+2.1 +0.4 88 985.4 975.8 +2.1 +5.4
50 км 10/0 1000 м
[]
+1.5 -0.2 88 986.9 977.2
45 км 10/0 1000 м
[]
+1.1 -0.5 89 988.1 978.4
50 км 9/9 300 м
[]
+0.8 -0.7 90 989.3 979.6
50 км 9/9 300 м
[]
0.0 -2.1 86 990.8 981.0
50 км 9/6 300 м
[]
-0.6 -2.5 87 991.9 982.1
50 км 10/0 300 м
[]
-0.6 -3.0 84 993.0 983.2
50 км 10/0 300 м
[]
-0.7 -3.2 83 994.2 984.3
50 км 10/0 300 м
[]
-0.8 -3.7 81 995.2 985.4
35 км 10/0 300 м
[]
-1.0 -3.3 84 996.1 986.2
50 км 10/0 300 м
[]
-1.0 -3.6 82 997.0 987.1
50 км 10/0 300 м
[]
-1.0 -3.7 82 997.7 987.8
50 км 9/0 300 м
[]
-1.3 -4.1 81 998.8 988.9 -1.4 +2.1 <0.5
5000 м слаб. дождь со снегом 10/10 300 м
[]
-2.3 -3.9 89 999.8 989.9 0.1
12 км слаб. дождь со снегом 10/9 200 м
[]
-2.4 -4.0 89 1000.9 990.9 0.1
50 км в посл. час переохл. осадки (гололёд) 9/8 300 м
[]
-2.2 -5.0 81 1001.8 991.9
50 км 9/9 600 м
[]
-2.1 -5.3 79 1003.0 993.1
10 км слаб. снег 10/10 300 м
[]
-2.2 -4.8 82 1004.1 994.1
40 км в посл. час переохл. осадки (гололёд) 9/0 600 м
[]
-2.3 -5.1 81 1005.6 995.6
50 км ясно -3.1 -5.8 82 1006.9 996.9
50 км ясно -3.5 -5.9 83 1007.9 997.9
50 км ясно -4.0 -6.2 85 1009.2 999.1
50 км 4/0 300 м
[]
-4.1 -6.4 84 1010.8 1000.7
45 км 5/0 300 м
[]
-4.7 -6.5 87 1012.1 1001.9
50 км 6/0 300 м
[]
-5.1 -6.8 88 1013.5 1003.4 -5.1 -1.3
50 км ясно -5.7 -7.0 91 1014.1 1003.9
45 км ясно -5.9 -7.0 92 1015.1 1004.8
35 км ясно -7.4 -8.1 95 1016.0 1005.7
35 км ясно -8.0 -8.5 96 1016.4 1006.0
50 км ясно -8.7 -9.4 95 1016.7 1006.3
50 км ясно -8.3 -9.1 94 1017.0 1006.6
50 км 9/8 100 м
[]
-7.8 -8.5 95 1017.6 1007.3
40 км 9/0
[]
-6.9 -7.5 95 1017.4 1007.2
50 км 3/0
[]
-7.4 -8.1 95 1017.3 1007.0
45 км 4/0
[]
-6.4 -7.1 95 1017.0 1006.8
35 км 4/1 100 м
[]
-5.5 -6.4 93 1017.0 1006.8
30 км 9/4 200 м
[]
-5.8 -7.0 91 1017.0 1006.7 -8.9 -5.1 <0.5
35 км 9/1 200 м
[]
-5.7 -6.8 92 1016.8 1006.5
35 км 9/9 2000 м
[]
-4.8 -5.9 92 1016.1 1005.9
29 км 9/8 200 м
[]
-3.6 -4.7 92 1015.0 1004.9
45 км 10/1 200 м
[]
-2.9 -4.3 90 1014.8 1004.7
45 км 6/4
[]
-2.7 -4.5 87 1013.7 1003.6
50 км 9/0
[]
-2.3 -4.9 82 1013.0 1003.0
50 км 10/1 300 м
[]
-2.2 -4.8 82 1012.2 1002.2
50 км 9/8 300 м
[]
-2.2 -4.3 85 1011.7 1001.7
45 км 10/0 300 м
[]
-2.0 -3.7 88 1011.1 1001.1
40 км 9/0 300 м
[]
-1.7 -3.5 87 1011.1 1001.1
2500 м слаб. снег 10/0 300 м
[]
-1.4 -3.1 88 1010.9 1000.9
4000 м слаб. снег {туман} 10/10 200 м
[]
-1.5 -2.9 90 1010.7 1000.7 -5.9 -1.4 0.2
1700 м слаб. снег 10/0 300 м
[]
-1.5 -2.8 91 1010.8 1000.8
3000 м слаб. снег 10/0 200 м
[]
-1.3 -2.4 92 1010.8 1000.8 0.1
2100 м слаб. снег 10/0 200 м
[]
-1.1 -2.0 94 1010.9 1000.9 0.1
2200 м слаб. снег 10/0 200 м
[]
-1.0 -1.9 94 1010.9 1000.9 0.1
7000 м слаб. снег 10/0 200 м
[]
-0.7 -1.7 93 1010.8 1000.8 0.1
8000 м слаб. снег 10/0 200 м
[]
-0.5 -1.6 92 1010.5 1000.5
10 км слаб. снег 10/0 200 м
[]
-0.6 -1.6 93 1010.4 1000.5
2400 м слаб. снег 10/0 100 м
[]
-1.0 -1.6 96 1010.3 1000.3 0.4
3300 м сильн. снег {дождь} 10/10 200 м
[]
-0.9 -1.6 95 1010.2 1000.3 0.1
2600 м слаб. снег 10/0 100 м
[]
-0.9 -1.6 95 1010.1 1000.1 0.2
2800 м слаб. снег 10/0 100 м
[]
-0.9 -1.7 94 1010.1 1000.1 0.2
35 км в посл. час переохл. осадки (гололёд) 10/0 200 м
[]
-0.8 -2.0 92 1009.8 999.8 -1.6 -0.5 0.1 0
30 км слаб. ливневой снег 10/0 300 м
[]
-0.7 -2.7 86 1010.0 1000.0
45 км в посл. час снег 10/0 300 м
[]
-0.6 -2.7 86 1010.3 1000.3
45 км {ливн. осадки} 10/0 300 м
[]
-0.8 -3.0 85 1010.4 1000.4
50 км 9/0 300 м
[]
-1.1 -3.4 84 1010.4 1000.4
45 км 10/0 300 м
[]
-0.9 -3.0 86 1009.9 1000.0
50 км {ливн. осадки} 10/10 300 м
[]
-0.5 -3.5 80 1009.7 999.7
50 км 10/10 600 м
[]
-0.3 -3.2 81 1009.6 999.6
50 км 10/10 300 м
[]
-0.3 -2.9 83 1009.6 999.7
8000 м слаб. снег 10/10 300 м
[]
-0.7 -2.2 90 1009.1 999.2
50 км в посл. час снег 10/10 200 м
[]
-0.8 -2.2 90 1008.8 998.8
50 км 10/10 200 м
[]
-0.9 -2.3 90 1008.3 998.3
50 км {ливн. осадки, снег} 10/10 300 м
[]
-1.2 -2.8 89 1007.7 997.7 -1.2 -0.2
50 км 9/8 1020 м
[]
-1.3 -3.2 87 1007.5 997.5
5000 м слаб. ливневой снег 10/10 300 м
[]
-1.4 -2.9 90 1006.7 996.8
11 км слаб. снег 10/10 200 м
[]
-1.2 -2.6 90 1005.7 995.8
30 км в посл. час снег 10/10 200 м
[]
-1.1 -2.3 92 1005.2 995.3
22 км 10/10 100 м
[]
-1.1 -2.0 94 1004.9 995.0
1000 м слаб. снег 10/10 200 м
[]
-1.1 -1.6 96 1004.4 994.5 0.2
20 км в посл. час снег 10/10 100 м
[]
-1.0 -1.5 96 1004.4 994.4 0.2
22 км слаб. ливневой снег 10/10 200 м
[]
-0.2 -1.1 94 1004.3 994.4
24 км в посл. час дождь {ливн. осадки} 10/10 1200 м
[]
-0.2 -1.3 92 1004.4 994.5
26 км 9/9 1300 м
[]
-0.4 -1.7 91 1004.5 994.6
18 км 10/10 300 м
[]
-0.5 -1.4 94 1004.2 994.3
8000 м туман на расстоянии {ливн. осадки, снег} 10/10 200 м
[]
-0.4 -1.2 94 1004.4 994.5 -1.5 -0.1 0
15 км в посл. час зёрна 10/10 100 м
[]
-0.3 -0.9 96 1004.7 994.8 0.1
9000 м дымка 10/10 660 м
[]
-0.1 -0.8 95 1005.1 995.2
10 км {ливн. осадки, снег} 10/10 100 м
[]
+0.2 -0.4 96 1005.4 995.5
11 км 10/10 200 м
[]
+0.3 -0.4 95 1005.4 995.5
11 км 10/10 200 м
[]
+0.5 -0.3 94 1005.4 995.5
12 км в посл. час дождь {ливн. осадки} 10/10 200 м
[]
+0.8 -0.2 93 1005.6 995.7
12 км 10/10 200 м
[]
+0.8 -0.1 94 1005.8 995.9
10 км 10/10 200 м
[]
+0.9 +0.1 94 1005.9 996.1
9000 м дымка 10/10 100 м
[]
+0.9 +0.3 96 1006.2 996.4
11 км 10/10 100 м
[]
+1.0 +0.4 96 1006.2 996.3
9000 м дымка 10/10 100 м
[]
+1.0 +0.7 98 1006.4 996.5
4100 м дымка 10/10 50 м
[]
+0.9 +0.9 100 1006.5 996.6 -0.4 +1.0
2400 м дымка 10/10 50 м
[]
+0.8 +0.8 100 1006.3 996.4
1200 м дымка 10/10 50 м
[]
+0.8 +0.8 100 1006.3 996.4
1500 м в посл. час морось 10/10 50 м
[]
+0.7 +0.7 100 1006.2 996.3
2200 м дымка 10/10 50 м
[]
+0.7 +0.7 100 1006.1 996.2
2100 м слаб. ливневой дождь 10/10 50 м
[]
+0.5 +0.5 100 1006.0 996.1 0.1
8000 м в посл. час снег {ливн. осадки, дождь} 10/10 200 м
[]
+0.3 +0.3 100 1005.9 996.0 0.1
6000 м в посл. час осадки 10/10 100 м
[]
+0.3 +0.2 99 1005.6 995.7
4300 м слаб. ливневой снег 10/10 200 м
[]
+0.3 +0.1 99 1005.4 995.5
8000 м ливневой дождь 10/10 200 м
[]
+0.4 0.0 97 1005.2 995.3
12 км 10/10 300 м
[]
+0.5 -0.3 94 1005.1 995.2
14 км в посл. час морось 10/10 300 м
[]
+0.5 -0.6 92 1004.8 994.9
8000 м переохл. дождь (гололёд) 10/10 200 м
[]
+0.3 -0.5 94 1004.6 994.7 +0.2 +0.9 0.1 0
7000 м ливневой дождь 10/10 200 м
[]
+0.4 -0.2 96 1004.6 994.8
16 км в посл. час морось 10/10 840 м
[]
+0.5 -0.5 93 1004.8 994.9
20 км {ливн. осадки, снег} 10/10 300 м
[]
+0.5 -0.7 92 1004.6 994.7
1800 м слаб. снег 10/10 300 м
[]
+0.3 -0.6 94 1004.4 994.5 0.1
9000 м снежные зёрна 10/10 200 м
[]
+0.3 -0.4 95 1004.5 994.6
21 км слаб. ливневой дождь 10/10 750 м
[]
+0.4 -0.7 92 1004.3 994.4
24 км 10/10 200 м
[]
+0.5 -0.7 92 1004.4 994.5
29 км 10/10 200 м
[]
+0.4 -0.8 92 1004.3 994.5
7000 м переохл. дождь (гололёд) {снег} 10/10 200 м
[]
+0.3 -0.5 94 1004.4 994.5
3000 м слаб. дождь со снегом 10/10 100 м
[]
+0.1 -0.2 98 1004.3 994.4 0.1
7000 м в посл. час дождь 10/10 100 м
[]
+0.4 -0.1 96 1004.1 994.2 0.1
11 км {ливн. осадки, снег} 10/10 200 м
[]
+0.6 -0.3 94 1004.2 994.3 +0.1 +0.6
4600 м слаб. снег 10/10 200 м
[]
+0.5 -0.2 95 1004.1 994.2
9000 м в посл. час снег 10/10 200 м
[]
+0.6 -0.1 95 1003.9 994.0 0.1
16 км {снег, дождь} 10/10 200 м
[]
+0.8 -0.3 92 1003.6 993.7
14 км 10/10 200 м
[]
+0.8 -0.3 92 1003.5 993.6
13 км 10/10 200 м
[]
+0.9 -0.3 92 1003.2 993.4
13 км {ливн. осадки, снег} 10/10 200 м
[]
+0.9 -0.3 92 1003.1 993.2
14 км 10/10 200 м
[]
+0.9 -0.2 92 1002.6 992.8
15 км 10/10 200 м
[]
+1.0 -0.2 92 1002.2 992.4
15 км 10/10 200 м
[]
+1.1 -0.1 92 1001.9 992.0
6000 м слаб. дождь со снегом 10/10 100 м
[]
+0.6 +0.2 97 1001.8 992.0 0.2
18 км в посл. час дождь 10/10 200 м
[]
+0.8 +0.1 95 1001.3 991.5
12 км {снег, дождь} 10/10 200 м
[]
+0.9 +0.2 95 1001.1 991.3 +0.4 +1.1 0
8000 м слаб. дождь 10/10 100 м
[]
+0.7 +0.3 97 1001.2 991.4 0.2
11 км снежные зёрна 10/10 200 м
[]
+0.8 +0.2 96 1001.1 991.3 0.1
7000 м ливневой дождь {снег} 10/10 200 м
[]
+0.7 +0.1 96 1001.0 991.2
8000 м слаб. морось 10/10 200 м
[]
+0.9 +0.2 95 1000.7 990.9 0.1
9000 м морось 10/10 200 м
[]
+0.8 +0.1 95 1000.5 990.6
3800 м сильн. снег {ливн. осадки} 10/10 200 м
[]
+0.4 +0.1 98 1000.5 990.7 0.3
3700 м слаб. дождь со снегом 10/10 750 м
[]
+0.3 +0.1 99 1000.4 990.5 0.3
2100 м слаб. снег 10/10 200 м
[]
+0.2 -0.1 98 1000.0 990.2 0.2
3900 м переохл. дождь (гололёд) {снег} 10/10 100 м
[]
+0.2 0.0 99 999.8 990.0 0.6
2700 м слаб. дождь со снегом 10/10 100 м
[]
+0.1 0.0 99 999.4 989.5 0.4
8000 м слаб. дождь со снегом 10/10 200 м
[]
0.0 -0.1 99 999.0 989.2 0.2
13 км слаб. морось {дождь} 10/10 200 м
[]
0.0 -0.3 98 998.8 989.0 0.0 +0.9 0.1
22 км в посл. час зёрна 10/10 200 м
[]
-0.1 -0.6 96 998.7 988.8
25 км 10/10 200 м
[]
-0.2 -0.7 96 998.3 988.5
Местоположение метеостанции Лаукансаари (Финляндия): широта 61.80 долгота 29.32 высота над уровнем моря 78 м.
В архиве по умолчанию представлена погода в Лаукансаари за последнюю неделю. Архивные данные за месяц целиком и за предыдущие месяцы, начиная с января 2011 года, Вы можете получить, выбрав интересующий диапазон дат из раскрывающегося списка и нажав кнопку "Найти!".
*Определитесь, кто Вы:
Внимание! Время в таблицах - всемирное. Для получения местного времени необходимо прибавить поправку, которая равна 1 ч.
Смотрите также архив погоды в соседних городах и на ближайших метеорологических станциях:
Партнеры нашего сайта:      
Пояснения к столбцам:
  • Ветер - указаны скорость ветра в м/с - средняя за 10 мин, порывы в срок и между сроками (в фигурных скобках) и направление, откуда дует ветер: С - северный,
  • СВ - северо-восточный, В - восточный, ЮВ - юго-восточный, Ю - южный, ЮЗ - юго-западный, З - западный, СЗ - северо-западный.
  • Видимость - горизонтальная дальность видимости в метрах или километрах. При видимости от 1 до 10 км при отсутствии осадков обычно наблюдается дымка, при ухудшении видимости до 1 км и менее - туман. В сухую погоду видимость может ухудшаться дымом, пылью или мглою.
  • Явления - указаны атмосферные явления, наблюдавшиеся в срок или в последний час перед сроком; фигурными скобками обозначены явления, наблюдавшиеся между сроками (за 1-3 часа до срока); квадратными скобками обозначены град или гололедные отложения с указанием их диаметра в мм.
  • Облачность - указаны через наклонную черту общая и нижняя облачность в баллах и высота нижней границы облаков в метрах; квадратными скобками обозначены формы облаков: Ci - перистые, Cs - перисто-слоистые, Cc - перисто-кучевые, Ac - высококучевые, As - высокослоистые, Sc - слоисто-кучевые, Ns - слоисто-дождевые, Cu - кучевые, Cb - кучево-дождевые. Подробнее классификацию облаков см. в Атласе облаков (PDF).
  • T - Температура воздуха - температура, измеренная на высоте 2 м над землей.
  • Td - Температура точки росы - температура, при понижении до которой содержащийся в воздухе водяной пар достигнет насыщения.
  • f - Относительная влажность воздуха - влажноcть воздуха, измеренная на высоте 2 м над землей.
  • Te - Эффективная температура - температура, которую ощущает одетый по сезону человек в тени. Характеристика душности погоды. При расчете учитывается влияние влажности воздуха и скорости ветра на теплоощущения человека.
  • Tes - Эффективная температура на солнце - температура, которую ощущает человек, с поправкой на солнечный нагрев. Характеристика знойности погоды. Зависит от высоты солнца над горизонтом, облачности и скорости ветра. Ночью, в пасмурную погоду, а также при ветре 12 м/с и более поправка равна нулю.
  • P - Атмосферное давление - приведенное к уровню моря атмосферное давление.
  • Po - Атмосферное давление - измеренное на уровне метеостанции атмосферное давление.
  • Tmin - Минимальная температура - минимум температуры воздуха на высоте 2 м над землей.
  • Tmax - Максимальная температура - максимум температуры воздуха на высоте 2 м над землей.
  • R - Количество осадков - Количество выпавших осадков за период времени, мм. При наведении курсора мыши на число - период времени, за который выпало указанное количество осадков.
  • R24 - Количество осадков - Количество выпавших осадков за 24 часа, мм.
  • S - Снежный покров - Высота снежного покрова, см. При наведении курсора мыши на число - состояние снежного покрова и степень покрытия местности в баллах.